| time (UTC) | temp F | wind direction | speed MPH | gust MPH | rain 1hr in | rain 24hr in | rain mn in | humidity % | barometer mb |
| 20260906050050 | 83 | 163 | 1.0 | 4.0 | 0.01 | 0.01 | 0.00 | 86 | 1014.2 |
| 20260906045551 | 83 | 170 | 0.0 | 4.0 | 0.01 | 0.01 | 0.01 | 85 | 1014.3 |
| 20260906045050 | 83 | 210 | 1.0 | 5.0 | 0.01 | 0.01 | 0.01 | 85 | 1014.2 |
| 20260906044549 | 83 | 180 | 0.0 | 3.0 | 0.01 | 0.01 | 0.01 | 85 | 1014.2 |
| 20260906044048 | 83 | 167 | 0.0 | 1.0 | 0.01 | 0.01 | 0.01 | 85 | 1014.3 |
| 20260906043549 | 83 | 167 | 0.0 | 2.0 | 0.01 | 0.01 | 0.01 | 85 | 1014.3 |
| 20260906043050 | 83 | 167 | 0.0 | 3.0 | 0.01 | 0.01 | 0.01 | 85 | 1014.4 |
| 20260906042549 | 83 | 167 | 0.0 | 5.0 | 0.01 | 0.01 | 0.01 | 85 | 1014.1 |
| 20260906042048 | 83 | 170 | 1.0 | 5.0 | 0.01 | 0.01 | 0.01 | 85 | 1014.1 |
| 20260906041554 | 83 | 173 | 1.0 | 5.0 | 0.01 | 0.01 | 0.01 | 85 | 1014.2 |
| 20260906041048 | 83 | 138 | 0.0 | 0.0 | 0.00 | 0.00 | 0.00 | 85 | 1014.2 |
| 20260906040548 | 83 | 138 | 0.0 | 0.0 | 0.00 | 0.00 | 0.00 | 85 | 1014.2 |
| 20260906040047 | 83 | 137 | 0.0 | 0.0 | 0.00 | 0.00 | 0.00 | 85 | 1014.4 |
| 20260906035547 | 83 | 161 | 0.0 | 0.0 | 0.00 | 0.00 | 0.00 | 85 | 1014.5 |
| 20260906035051 | 83 | 159 | 0.0 | 0.0 | 0.00 | 0.00 | 0.00 | 85 | 1014.3 |
| 20260906034549 | 83 | 159 | 0.0 | 0.0 | 0.00 | 0.00 | 0.00 | 85 | 1014.3 |
| 20260906034046 | 83 | 157 | 0.0 | 0.0 | 0.00 | 0.00 | 0.00 | 85 | 1014.4 |
| 20260906033549 | 83 | 179 | 0.0 | 0.0 | 0.00 | 0.00 | 0.00 | 85 | 1014.3 |
| 20260906033046 | 83 | 165 | 0.0 | 4.0 | 0.00 | 0.00 | 0.00 | 85 | 1014.3 |
| 20260906032548 | 83 | 163 | 1.0 | 4.0 | 0.00 | 0.00 | 0.00 | 85 | 1014.3 |
| 20260906032046 | 83 | 128 | 1.0 | 7.0 | 0.00 | 0.00 | 0.00 | 85 | 1014.4 |
| 20260906031547 | 83 | 171 | 2.0 | 6.0 | 0.00 | 0.00 | 0.00 | 86 | 1014.4 |
| 20260906031046 | 83 | 136 | 0.0 | 2.0 | 0.00 | 0.00 | 0.00 | 86 | 1014.4 |
| 20260906030546 | 83 | 135 | 0.0 | 0.0 | 0.00 | 0.00 | 0.00 | 86 | 1014.3 |
| 20260906030046 | 83 | 135 | 0.0 | 0.0 | 0.00 | 0.00 | 0.00 | 86 | 1014.2 |
| 20260906025548 | 83 | 135 | 0.0 | 0.0 | 0.00 | 0.00 | 0.00 | 86 | 1014.1 |
| 20260906025045 | 83 | 135 | 0.0 | 0.0 | 0.00 | 0.00 | 0.00 | 85 | 1014.1 |
| 20260906024559 | 83 | 135 | 0.0 | 0.0 | 0.00 | 0.00 | 0.00 | 85 | 1013.9 |
| 20260906024045 | 83 | 135 | 0.0 | 1.0 | 0.00 | 0.00 | 0.00 | 85 | 1013.9 |
| 20260906023545 | 83 | 135 | 0.0 | 2.0 | 0.00 | 0.00 | 0.00 | 85 | 1013.7 |
| 20260906023044 | 84 | 135 | 0.0 | 2.0 | 0.00 | 0.00 | 0.00 | 84 | 1013.7 |
| 20260906022547 | 84 | 101 | 0.0 | 2.0 | 0.00 | 0.00 | 0.00 | 84 | 1013.7 |
| 20260906022044 | 84 | 87 | 0.0 | 1.0 | 0.00 | 0.00 | 0.00 | 84 | 1013.6 |
| 20260906021543 | 84 | 84 | 0.0 | 1.0 | 0.00 | 0.00 | 0.00 | 83 | 1013.5 |
| 20260906021043 | 84 | 124 | 0.0 | 1.0 | 0.00 | 0.00 | 0.00 | 83 | 1013.5 |
| 20260906020543 | 84 | 125 | 0.0 | 1.0 | 0.00 | 0.00 | 0.00 | 82 | 1013.4 |
| 20260906020048 | 85 | 125 | 0.0 | 2.0 | 0.00 | 0.00 | 0.00 | 82 | 1013.4 |
| 20260906015542 | 85 | 141 | 0.0 | 3.0 | 0.00 | 0.00 | 0.00 | 82 | 1013.3 |
| 20260906015045 | 85 | 156 | 0.0 | 1.0 | 0.00 | 0.00 | 0.00 | 82 | 1013.3 |
| 20260906014552 | 85 | 159 | 0.0 | 2.0 | 0.00 | 0.00 | 0.00 | 82 | 1013.2 |
| 20260906014043 | 85 | 101 | 0.0 | 4.0 | 0.00 | 0.00 | 0.00 | 82 | 1013.2 |
| 20260906013544 | 85 | 115 | 0.0 | 4.0 | 0.00 | 0.00 | 0.00 | 81 | 1013.2 |
| 20260906013044 | 85 | 148 | 0.0 | 2.0 | 0.00 | 0.00 | 0.00 | 81 | 1013.1 |
| 20260906012541 | 85 | 108 | 0.0 | 3.0 | 0.00 | 0.00 | 0.00 | 81 | 1013.0 |
| 20260906012041 | 85 | 136 | 0.0 | 3.0 | 0.00 | 0.00 | 0.00 | 80 | 1013.0 |
| 20260906011543 | 85 | 143 | 0.0 | 3.0 | 0.00 | 0.00 | 0.00 | 80 | 1013.0 |
| 20260906011040 | 85 | 128 | 0.0 | 3.0 | 0.00 | 0.00 | 0.00 | 80 | 1013.0 |
| 20260906010540 | 85 | 140 | 0.0 | 3.0 | 0.00 | 0.00 | 0.00 | 80 | 1012.9 |
| 20260906010040 | 85 | 139 | 0.0 | 1.0 | 0.00 | 0.00 | 0.00 | 79 | 1012.9 |
| 20260906005539 | 85 | 348 | 0.0 | 0.0 | 0.00 | 0.01 | 0.00 | 79 | 1013.1 |
| 20260906005040 | 85 | 348 | 0.0 | 0.0 | 0.00 | 0.01 | 0.00 | 79 | 1013.1 |
| 20260906004542 | 85 | 348 | 0.0 | 1.0 | 0.00 | 0.01 | 0.00 | 79 | 1013.0 |
| 20260906004039 | 85 | 348 | 0.0 | 1.0 | 0.00 | 0.01 | 0.00 | 79 | 1013.0 |
| 20260906003539 | 85 | 348 | 0.0 | 4.0 | 0.00 | 0.01 | 0.00 | 78 | 1013.0 |
| 20260906003049 | 85 | 344 | 1.0 | 4.0 | 0.00 | 0.01 | 0.00 | 78 | 1013.1 |
| 20260906002539 | 85 | 63 | 0.0 | 4.0 | 0.00 | 0.01 | 0.00 | 79 | 1013.2 |
| 20260906002039 | 85 | 49 | 1.0 | 4.0 | 0.00 | 0.01 | 0.00 | 79 | 1013.2 |
| 20260906001538 | 85 | 66 | 0.0 | 1.0 | 0.00 | 0.01 | 0.00 | 80 | 1013.2 |
| 20260906001038 | 85 | 49 | 0.0 | 8.0 | 0.00 | 0.01 | 0.00 | 80 | 1013.2 |
| 20260906000538 | 85 | 41 | 0.0 | 8.0 | 0.00 | 0.01 | 0.00 | 80 | 1013.3 |
| 20260906000038 | 85 | 48 | 0.0 | 2.0 | 0.00 | 0.01 | 0.00 | 82 | 1013.3 |
| 20260905235539 | 85 | 5 | 0.0 | 0.0 | 0.00 | 0.01 | 0.00 | 83 | 1013.5 |
| 20260905235041 | 85 | 5 | 0.0 | 1.0 | 0.00 | 0.01 | 0.00 | 83 | 1013.6 |
| 20260905234538 | 85 | 5 | 0.0 | 1.0 | 0.00 | 0.01 | 0.00 | 83 | 1013.5 |
| 20260905234038 | 85 | 5 | 0.0 | 0.0 | 0.00 | 0.01 | 0.00 | 84 | 1013.5 |
| 20260905233538 | 85 | 5 | 0.0 | 0.0 | 0.00 | 0.01 | 0.00 | 84 | 1013.5 |
| 20260905233038 | 85 | 5 | 0.0 | 0.0 | 0.00 | 0.01 | 0.00 | 85 | 1013.6 |
| 20260905232537 | 85 | 5 | 0.0 | 0.0 | 0.00 | 0.01 | 0.00 | 85 | 1013.5 |
| 20260905232037 | 84 | 5 | 0.0 | 0.0 | 0.00 | 0.01 | 0.00 | 85 | 1013.5 |
| 20260905231539 | 84 | 5 | 0.0 | 0.0 | 0.00 | 0.01 | 0.00 | 85 | 1013.4 |
| 20260905231037 | 84 | 5 | 0.0 | 0.0 | 0.00 | 0.01 | 0.00 | 85 | 1013.2 |
| 20260905230539 | 84 | 5 | 0.0 | 0.0 | 0.00 | 0.01 | 0.00 | 85 | 1013.1 |
| 20260905230036 | 84 | 5 | 0.0 | 0.0 | 0.00 | 0.01 | 0.00 | 86 | 1013.2 |
| 20260905225537 | 84 | 5 | 0.0 | 0.0 | 0.00 | 0.01 | 0.00 | 86 | 1013.2 |
| 20260905225037 | 83 | 5 | 0.0 | 1.0 | 0.00 | 0.01 | 0.00 | 86 | 1013.1 |
| 20260905224536 | 83 | 5 | 0.0 | 1.0 | 0.00 | 0.01 | 0.00 | 85 | 1013.0 |
| 20260905224036 | 83 | 5 | 0.0 | 1.0 | 0.00 | 0.01 | 0.00 | 85 | 1013.0 |
| 20260905223536 | 83 | 5 | 0.0 | 1.0 | 0.00 | 0.01 | 0.00 | 85 | 1012.9 |
| 20260905223035 | 83 | 5 | 0.0 | 1.0 | 0.00 | 0.01 | 0.00 | 84 | 1013.0 |
| 20260905222534 | 83 | 5 | 0.0 | 1.0 | 0.00 | 0.01 | 0.00 | 84 | 1013.0 |
| 20260905222036 | 83 | 329 | 0.0 | 2.0 | 0.00 | 0.01 | 0.00 | 83 | 1013.0 |
| 20260905221535 | 82 | 305 | 0.0 | 2.0 | 0.00 | 0.01 | 0.00 | 82 | 1012.9 |
| 20260905221038 | 82 | 185 | 0.0 | 2.0 | 0.00 | 0.01 | 0.00 | 82 | 1013.0 |
| 20260905220534 | 82 | 193 | 0.0 | 1.0 | 0.00 | 0.01 | 0.00 | 84 | 1012.9 |
| 20260905220041 | 82 | 194 | 0.0 | 6.0 | 0.00 | 0.01 | 0.00 | 83 | 1012.8 |
| 20260905215534 | 83 | 238 | 0.0 | 6.0 | 0.00 | 0.01 | 0.00 | 83 | 1012.8 |
| 20260905215036 | 83 | 192 | 0.0 | 4.0 | 0.00 | 0.01 | 0.00 | 85 | 1012.7 |
| 20260905214533 | 84 | 193 | 0.0 | 5.0 | 0.00 | 0.01 | 0.00 | 84 | 1012.8 |
| 20260905214033 | 84 | 181 | 0.0 | 5.0 | 0.00 | 0.01 | 0.00 | 83 | 1012.7 |
| 20260905213532 | 85 | 189 | 1.0 | 5.0 | 0.00 | 0.01 | 0.00 | 81 | 1012.8 |
| 20260905213040 | 87 | 188 | 2.0 | 5.0 | 0.00 | 0.01 | 0.00 | 77 | 1013.0 |
| 20260905212536 | 89 | 227 | 1.0 | 5.0 | 0.00 | 0.01 | 0.00 | 74 | 1013.0 |
| 20260905212032 | 91 | 265 | 1.0 | 5.0 | 0.00 | 0.01 | 0.00 | 69 | 1013.3 |
| 20260905211539 | 92 | 78 | 0.0 | 4.0 | 0.00 | 0.01 | 0.00 | 65 | 1013.3 |
| 20260905211032 | 92 | 77 | 0.0 | 4.0 | 0.00 | 0.01 | 0.00 | 64 | 1013.2 |
| 20260905210534 | 92 | 85 | 1.0 | 4.0 | 0.00 | 0.01 | 0.00 | 64 | 1013.2 |
| 20260905210030 | 92 | 92 | 0.0 | 2.0 | 0.00 | 0.01 | 0.00 | 64 | 1013.2 |
| 20260905205529 | 92 | 88 | 0.0 | 6.0 | 0.00 | 0.01 | 0.00 | 65 | 1013.2 |
| 20260905205030 | 93 | 148 | 1.0 | 6.0 | 0.00 | 0.01 | 0.00 | 64 | 1013.1 |
| 20260905204530 | 93 | 89 | 1.0 | 6.0 | 0.00 | 0.01 | 0.00 | 63 | 1012.9 |
| 20260905204028 | 93 | 165 | 2.0 | 6.0 | 0.00 | 0.01 | 0.00 | 65 | 1012.9 |
| 20260905203531 | 93 | 161 | 0.0 | 3.0 | 0.00 | 0.01 | 0.00 | 64 | 1013.0 |
| 20260905203027 | 93 | 171 | 0.0 | 7.0 | 0.00 | 0.01 | 0.00 | 64 | 1013.0 |
| 20260905202526 | 93 | 144 | 3.0 | 7.0 | 0.00 | 0.01 | 0.00 | 63 | 1013.1 |
| 20260905202026 | 93 | 124 | 0.0 | 3.0 | 0.00 | 0.01 | 0.00 | 63 | 1013.3 |
| 20260905201525 | 93 | 360 | 0.0 | 6.0 | 0.00 | 0.01 | 0.00 | 65 | 1013.2 |
| 20260905201026 | 93 | 153 | 0.0 | 7.0 | 0.00 | 0.01 | 0.00 | 66 | 1013.3 |
| 20260905200522 | 92 | 145 | 2.0 | 7.0 | 0.00 | 0.01 | 0.00 | 66 | 1013.3 |
| 20260905200020 | 92 | 150 | 3.0 | 8.0 | 0.00 | 0.01 | 0.00 | 65 | 1013.5 |
| 20260905195521 | 92 | 136 | 2.0 | 7.0 | 0.00 | 0.01 | 0.00 | 66 | 1013.5 |
| 20260905195019 | 92 | 106 | 2.0 | 8.0 | 0.00 | 0.01 | 0.00 | 68 | 1013.6 |
| 20260905194518 | 92 | 61 | 1.0 | 8.0 | 0.00 | 0.01 | 0.00 | 68 | 1013.6 |
| 20260905194017 | 92 | 150 | 2.0 | 9.0 | 0.00 | 0.01 | 0.00 | 68 | 1013.6 |
| 20260905193516 | 92 | 177 | 5.0 | 10.0 | 0.00 | 0.01 | 0.00 | 68 | 1013.6 |
| 20260905193013 | 92 | 53 | 4.0 | 13.0 | 0.00 | 0.01 | 0.00 | 68 | 1013.6 |
| 20260905192515 | 92 | 89 | 3.0 | 13.0 | 0.00 | 0.01 | 0.00 | 69 | 1013.8 |
| 20260905192010 | 92 | 328 | 3.0 | 11.0 | 0.00 | 0.01 | 0.00 | 67 | 1013.8 |
| 20260905191509 | 92 | 101 | 3.0 | 11.0 | 0.00 | 0.01 | 0.00 | 67 | 1014.0 |
| 20260905191009 | 92 | 86 | 1.0 | 8.0 | 0.00 | 0.01 | 0.00 | 68 | 1014.1 |
| 20260905190506 | 91 | 94 | 2.0 | 10.0 | 0.00 | 0.01 | 0.00 | 68 | 1014.1 |
| 20260905190010 | 91 | 208 | 3.0 | 10.0 | 0.00 | 0.01 | 0.00 | 68 | 1014.2 |
| 20260905185506 | 92 | 186 | 4.0 | 9.0 | 0.00 | 0.01 | 0.00 | 67 | 1014.2 |
| 20260905185005 | 93 | 82 | 2.0 | 5.0 | 0.00 | 0.01 | 0.00 | 63 | 1014.2 |
| 20260905184504 | 92 | 144 | 0.0 | 6.0 | 0.00 | 0.01 | 0.00 | 64 | 1014.1 |
| 20260905184003 | 92 | 170 | 2.0 | 6.0 | 0.00 | 0.01 | 0.00 | 64 | 1014.3 |
| 20260905183501 | 92 | 142 | 1.0 | 3.0 | 0.00 | 0.01 | 0.00 | 63 | 1014.4 |
| 20260905183101 | 92 | 76 | 0.0 | 4.0 | 0.00 | 0.01 | 0.00 | 64 | 1014.2 |
| 20260905182558 | 91 | 67 | 0.0 | 4.0 | 0.00 | 0.01 | 0.00 | 65 | 1014.5 |
| 20260905182058 | 91 | 71 | 1.0 | 3.0 | 0.00 | 0.01 | 0.00 | 66 | 1014.6 |
| 20260905181602 | 91 | 87 | 0.0 | 4.0 | 0.00 | 0.01 | 0.00 | 66 | 1014.8 |
| 20260905181057 | 91 | 44 | 2.0 | 5.0 | 0.00 | 0.01 | 0.00 | 66 | 1015.1 |
| 20260905180600 | 91 | 299 | 3.0 | 5.0 | 0.00 | 0.01 | 0.00 | 66 | 1015.1 |
| 20260905175557 | 91 | 355 | 0.0 | 3.0 | 0.00 | 0.01 | 0.00 | 65 | 1015.2 |
| 20260905175058 | 91 | 346 | 1.0 | 3.0 | 0.00 | 0.01 | 0.00 | 66 | 1015.2 |
| 20260905174557 | 91 | 89 | 0.0 | 4.0 | 0.00 | 0.01 | 0.00 | 65 | 1015.4 |
| 20260905174057 | 91 | 90 | 1.0 | 4.0 | 0.00 | 0.01 | 0.00 | 64 | 1015.4 |
| 20260905173557 | 91 | 323 | 1.0 | 4.0 | 0.00 | 0.01 | 0.00 | 64 | 1015.5 |
| 20260905173056 | 91 | 355 | 1.0 | 4.0 | 0.00 | 0.01 | 0.00 | 63 | 1015.6 |
| 20260905172556 | 92 | 61 | 1.0 | 4.0 | 0.00 | 0.01 | 0.00 | 63 | 1015.6 |
| 20260905172055 | 92 | 360 | 1.0 | 4.0 | 0.00 | 0.01 | 0.00 | 65 | 1015.6 |
| 20260905171554 | 91 | 348 | 1.0 | 5.0 | 0.00 | 0.01 | 0.00 | 64 | 1015.6 |
| 20260905171055 | 91 | 24 | 3.0 | 6.0 | 0.00 | 0.01 | 0.00 | 64 | 1015.6 |
| 20260905170553 | 91 | 22 | 2.0 | 6.0 | 0.00 | 0.01 | 0.00 | 64 | 1015.5 |
| 20260905170058 | 91 | 334 | 0.0 | 4.0 | 0.00 | 0.01 | 0.00 | 65 | 1015.6 |
| 20260905165551 | 91 | 165 | 0.0 | 3.0 | 0.00 | 0.01 | 0.00 | 65 | 1015.6 |
| 20260905165053 | 91 | 163 | 1.0 | 3.0 | 0.00 | 0.01 | 0.00 | 65 | 1015.7 |
| 20260905164553 | 90 | 48 | 0.0 | 2.0 | 0.00 | 0.01 | 0.00 | 67 | 1015.7 |
| 20260905164047 | 90 | 47 | 0.0 | 4.0 | 0.00 | 0.01 | 0.00 | 65 | 1015.9 |
| 20260905163548 | 89 | 47 | 1.0 | 4.0 | 0.00 | 0.01 | 0.00 | 66 | 1016.0 |
| 20260905163045 | 89 | 36 | 1.0 | 4.0 | 0.00 | 0.01 | 0.00 | 69 | 1016.0 |
| 20260905162547 | 89 | 339 | 1.0 | 4.0 | 0.00 | 0.01 | 0.00 | 71 | 1016.0 |
| 20260905162044 | 89 | 336 | 1.0 | 4.0 | 0.00 | 0.01 | 0.00 | 71 | 1016.0 |
| 20260905161544 | 89 | 153 | 0.0 | 3.0 | 0.00 | 0.01 | 0.00 | 73 | 1016.1 |
| 20260905161043 | 89 | 151 | 0.0 | 3.0 | 0.00 | 0.01 | 0.00 | 73 | 1016.0 |
| 20260905160542 | 88 | 159 | 0.0 | 3.0 | 0.00 | 0.01 | 0.00 | 75 | 1016.0 |
| 20260905160047 | 88 | 126 | 0.0 | 1.0 | 0.00 | 0.01 | 0.00 | 74 | 1016.0 |
| 20260905155544 | 88 | 10 | 0.0 | 2.0 | 0.00 | 0.01 | 0.00 | 75 | 1016.0 |
| 20260905155046 | 88 | 12 | 0.0 | 2.0 | 0.00 | 0.01 | 0.00 | 73 | 1016.0 |
| 20260905154542 | 88 | 36 | 0.0 | 2.0 | 0.00 | 0.01 | 0.00 | 76 | 1015.9 |
| 20260905154040 | 88 | 68 | 1.0 | 2.0 | 0.00 | 0.01 | 0.00 | 76 | 1016.0 |
| 20260905153541 | 88 | 163 | 0.0 | 2.0 | 0.00 | 0.01 | 0.00 | 76 | 1015.9 |
| 20260905153039 | 87 | 194 | 0.0 | 3.0 | 0.00 | 0.01 | 0.00 | 77 | 1016.0 |
| 20260905152537 | 87 | 197 | 0.0 | 2.0 | 0.00 | 0.01 | 0.00 | 79 | 1016.1 |
| 20260905152036 | 87 | 350 | 0.0 | 3.0 | 0.00 | 0.01 | 0.00 | 79 | 1016.0 |
| 20260905151536 | 86 | 348 | 0.0 | 3.0 | 0.00 | 0.01 | 0.00 | 80 | 1016.1 |
| 20260905151035 | 87 | 309 | 0.0 | 5.0 | 0.00 | 0.01 | 0.00 | 81 | 1016.1 |
| 20260905150539 | 87 | 307 | 0.0 | 5.0 | 0.00 | 0.01 | 0.00 | 83 | 1016.1 |
| 20260905150036 | 86 | 146 | 0.0 | 2.0 | 0.00 | 0.01 | 0.00 | 84 | 1016.1 |
| 20260905145533 | 86 | 145 | 0.0 | 2.0 | 0.00 | 0.01 | 0.00 | 85 | 1016.0 |
| 20260905145031 | 85 | 144 | 0.0 | 1.0 | 0.00 | 0.01 | 0.00 | 87 | 1015.9 |
| 20260905144535 | 85 | 147 | 0.0 | 1.0 | 0.00 | 0.01 | 0.00 | 88 | 1015.8 |
| 20260905144029 | 84 | 147 | 0.0 | 2.0 | 0.00 | 0.01 | 0.00 | 88 | 1015.9 |
| 20260905143528 | 84 | 148 | 0.0 | 2.0 | 0.00 | 0.01 | 0.00 | 88 | 1016.0 |
| 20260905143031 | 84 | 152 | 0.0 | 2.0 | 0.00 | 0.01 | 0.00 | 89 | 1015.9 |
| 20260905142526 | 84 | 152 | 1.0 | 2.0 | 0.00 | 0.01 | 0.00 | 89 | 1015.9 |
| 20260905142026 | 84 | 153 | 0.0 | 2.0 | 0.00 | 0.01 | 0.00 | 91 | 1016.0 |
| 20260905141525 | 83 | 153 | 0.0 | 2.0 | 0.00 | 0.01 | 0.00 | 91 | 1015.8 |
| 20260905141026 | 83 | 158 | 0.0 | 2.0 | 0.00 | 0.01 | 0.00 | 92 | 1015.8 |
| 20260905140524 | 82 | 159 | 0.0 | 2.0 | 0.00 | 0.01 | 0.00 | 93 | 1015.7 |
| 20260905140022 | 82 | 164 | 0.0 | 1.0 | 0.00 | 0.01 | 0.00 | 94 | 1015.7 |
| 20260905135521 | 82 | 164 | 0.0 | 0.0 | 0.00 | 0.01 | 0.00 | 95 | 1015.8 |
| 20260905135020 | 82 | 164 | 0.0 | 0.0 | 0.00 | 0.01 | 0.00 | 95 | 1015.7 |
| 20260905134521 | 81 | 164 | 0.0 | 2.0 | 0.00 | 0.01 | 0.00 | 96 | 1015.7 |
| 20260905134018 | 81 | 164 | 0.0 | 2.0 | 0.00 | 0.01 | 0.00 | 97 | 1015.7 |
| 20260905133520 | 81 | 164 | 0.0 | 2.0 | 0.00 | 0.01 | 0.00 | 97 | 1015.6 |
| 20260905133015 | 80 | 164 | 0.0 | 0.0 | 0.00 | 0.01 | 0.00 | 98 | 1015.5 |
| 20260905132515 | 80 | 164 | 0.0 | 0.0 | 0.00 | 0.01 | 0.00 | 97 | 1015.5 |
| 20260905132017 | 80 | 164 | 0.0 | 0.0 | 0.00 | 0.01 | 0.00 | 98 | 1015.5 |
| 20260905131526 | 80 | 164 | 0.0 | 0.0 | 0.00 | 0.01 | 0.00 | 98 | 1015.6 |
| 20260905131013 | 80 | 164 | 0.0 | 0.0 | 0.00 | 0.01 | 0.00 | 98 | 1015.6 |
| 20260905130512 | 79 | 164 | 0.0 | 0.0 | 0.00 | 0.01 | 0.00 | 98 | 1015.7 |
| 20260905130010 | 79 | 164 | 0.0 | 0.0 | 0.00 | 0.01 | 0.00 | 98 | 1015.6 |
| 20260905125510 | 79 | 164 | 0.0 | 0.0 | 0.00 | 0.01 | 0.00 | 98 | 1015.6 |
| 20260905125009 | 78 | 163 | 0.0 | 0.0 | 0.00 | 0.01 | 0.00 | 99 | 1015.5 |
| 20260905124509 | 78 | 163 | 0.0 | 0.0 | 0.00 | 0.01 | 0.00 | 98 | 1015.4 |
| 20260905124008 | 77 | 163 | 0.0 | 0.0 | 0.00 | 0.01 | 0.00 | 97 | 1015.3 |
| 20260905123507 | 77 | 163 | 0.0 | 0.0 | 0.00 | 0.01 | 0.00 | 97 | 1015.3 |
| 20260905123006 | 77 | 163 | 0.0 | 0.0 | 0.00 | 0.01 | 0.00 | 97 | 1015.3 |
| 20260905122508 | 77 | 163 | 0.0 | 0.0 | 0.00 | 0.01 | 0.00 | 96 | 1015.2 |
| 20260905122005 | 77 | 163 | 0.0 | 0.0 | 0.00 | 0.01 | 0.00 | 96 | 1015.2 |
| 20260905121505 | 77 | 163 | 0.0 | 0.0 | 0.00 | 0.01 | 0.00 | 96 | 1015.3 |
| 20260905121005 | 77 | 163 | 0.0 | 0.0 | 0.00 | 0.01 | 0.00 | 96 | 1015.1 |
| 20260905120505 | 77 | 163 | 0.0 | 0.0 | 0.00 | 0.01 | 0.00 | 96 | 1015.1 |
| 20260905120004 | 77 | 163 | 0.0 | 0.0 | 0.00 | 0.01 | 0.00 | 96 | 1015.0 |
| 20260905115504 | 77 | 163 | 0.0 | 0.0 | 0.00 | 0.01 | 0.00 | 96 | 1014.9 |
| 20260905115005 | 77 | 163 | 0.0 | 0.0 | 0.00 | 0.01 | 0.00 | 96 | 1014.8 |
| 20260905114505 | 77 | 163 | 0.0 | 0.0 | 0.00 | 0.01 | 0.00 | 96 | 1014.8 |
| 20260905114004 | 77 | 163 | 0.0 | 0.0 | 0.00 | 0.01 | 0.00 | 96 | 1014.7 |
| 20260905113504 | 77 | 163 | 0.0 | 0.0 | 0.00 | 0.01 | 0.00 | 96 | 1014.6 |
| 20260905113003 | 77 | 163 | 0.0 | 0.0 | 0.00 | 0.01 | 0.00 | 96 | 1014.5 |
| 20260905112504 | 77 | 163 | 0.0 | 0.0 | 0.00 | 0.01 | 0.00 | 96 | 1014.4 |
| 20260905112002 | 77 | 163 | 0.0 | 0.0 | 0.00 | 0.01 | 0.00 | 96 | 1014.6 |
| 20260905111502 | 77 | 163 | 0.0 | 0.0 | 0.00 | 0.01 | 0.00 | 96 | 1014.5 |
| 20260905111002 | 77 | 163 | 0.0 | 0.0 | 0.00 | 0.01 | 0.00 | 96 | 1014.4 |
| 20260905110502 | 77 | 163 | 0.0 | 0.0 | 0.00 | 0.01 | 0.00 | 96 | 1014.4 |
| 20260905110001 | 77 | 163 | 0.0 | 0.0 | 0.00 | 0.02 | 0.00 | 96 | 1014.2 |
| 20260905105600 | 77 | 163 | 0.0 | 0.0 | 0.00 | 0.02 | 0.00 | 96 | 1014.2 |
| 20260905105100 | 77 | 163 | 0.0 | 0.0 | 0.00 | 0.02 | 0.00 | 96 | 1014.2 |
| 20260905104558 | 77 | 163 | 0.0 | 0.0 | 0.00 | 0.02 | 0.00 | 96 | 1014.2 |
| 20260905104057 | 77 | 163 | 0.0 | 0.0 | 0.00 | 0.02 | 0.00 | 96 | 1014.2 |
| 20260905103556 | 77 | 163 | 0.0 | 0.0 | 0.00 | 0.02 | 0.00 | 96 | 1014.2 |
| 20260905103055 | 77 | 163 | 0.0 | 0.0 | 0.00 | 0.02 | 0.00 | 96 | 1014.3 |
| 20260905102553 | 77 | 163 | 0.0 | 0.0 | 0.00 | 0.02 | 0.00 | 96 | 1014.3 |
| 20260905102052 | 77 | 163 | 0.0 | 0.0 | 0.00 | 0.02 | 0.00 | 96 | 1014.4 |
| 20260905101552 | 77 | 163 | 0.0 | 0.0 | 0.00 | 0.02 | 0.00 | 96 | 1014.3 |
| 20260905101051 | 77 | 163 | 0.0 | 0.0 | 0.00 | 0.02 | 0.00 | 96 | 1014.3 |
| 20260905100551 | 77 | 163 | 0.0 | 0.0 | 0.00 | 0.02 | 0.00 | 96 | 1014.3 |
| 20260905100104 | 77 | 163 | 0.0 | 0.0 | 0.00 | 0.02 | 0.00 | 96 | 1014.4 |
| 20260905095551 | 77 | 163 | 0.0 | 0.0 | 0.00 | 0.02 | 0.00 | 96 | 1014.3 |
| 20260905095051 | 77 | 163 | 0.0 | 0.0 | 0.00 | 0.02 | 0.00 | 96 | 1014.4 |
| 20260905094551 | 77 | 163 | 0.0 | 0.0 | 0.00 | 0.02 | 0.00 | 96 | 1014.3 |
| 20260905094050 | 77 | 163 | 0.0 | 0.0 | 0.00 | 0.02 | 0.00 | 96 | 1014.4 |
| 20260905093551 | 78 | 163 | 0.0 | 0.0 | 0.00 | 0.02 | 0.00 | 96 | 1014.3 |
| 20260905093056 | 78 | 163 | 0.0 | 0.0 | 0.00 | 0.02 | 0.00 | 96 | 1014.4 |
| 20260905092549 | 78 | 163 | 0.0 | 0.0 | 0.00 | 0.02 | 0.00 | 96 | 1014.4 |
| 20260905092049 | 78 | 163 | 0.0 | 0.0 | 0.00 | 0.02 | 0.00 | 96 | 1014.5 |
| 20260905091559 | 78 | 163 | 0.0 | 0.0 | 0.00 | 0.02 | 0.00 | 96 | 1014.4 |
| 20260905091049 | 78 | 163 | 0.0 | 0.0 | 0.00 | 0.02 | 0.00 | 96 | 1014.5 |
| 20260905090549 | 78 | 163 | 0.0 | 0.0 | 0.00 | 0.02 | 0.00 | 96 | 1014.3 |
| 20260905090049 | 78 | 163 | 0.0 | 0.0 | 0.00 | 0.02 | 0.00 | 96 | 1014.4 |
| 20260905085548 | 78 | 163 | 0.0 | 0.0 | 0.00 | 0.02 | 0.00 | 96 | 1014.3 |
| 20260905085052 | 78 | 163 | 0.0 | 0.0 | 0.00 | 0.02 | 0.00 | 96 | 1014.2 |
| 20260905084552 | 78 | 163 | 0.0 | 0.0 | 0.00 | 0.02 | 0.00 | 96 | 1014.3 |
| 20260905084048 | 78 | 163 | 0.0 | 0.0 | 0.00 | 0.02 | 0.00 | 96 | 1014.2 |
| 20260905083548 | 78 | 163 | 0.0 | 0.0 | 0.00 | 0.02 | 0.00 | 96 | 1014.2 |
| 20260905083047 | 78 | 163 | 0.0 | 0.0 | 0.00 | 0.02 | 0.00 | 95 | 1014.2 |
| 20260905082546 | 78 | 163 | 0.0 | 0.0 | 0.00 | 0.02 | 0.00 | 96 | 1014.2 |
| 20260905082047 | 78 | 163 | 0.0 | 0.0 | 0.00 | 0.02 | 0.00 | 96 | 1014.1 |
| 20260905081549 | 78 | 163 | 0.0 | 0.0 | 0.00 | 0.02 | 0.00 | 96 | 1014.2 |
| 20260905081046 | 78 | 163 | 0.0 | 0.0 | 0.00 | 0.02 | 0.00 | 95 | 1014.2 |
| 20260905080545 | 78 | 163 | 0.0 | 0.0 | 0.00 | 0.02 | 0.00 | 95 | 1014.2 |
| 20260905080053 | 78 | 163 | 0.0 | 0.0 | 0.00 | 0.02 | 0.00 | 95 | 1014.3 |
| 20260905075547 | 78 | 163 | 0.0 | 0.0 | 0.00 | 0.02 | 0.00 | 95 | 1014.3 |
| 20260905075044 | 78 | 163 | 0.0 | 0.0 | 0.00 | 0.02 | 0.00 | 95 | 1014.3 |
| 20260905074544 | 78 | 163 | 0.0 | 0.0 | 0.00 | 0.02 | 0.00 | 95 | 1014.3 |
| 20260905074043 | 78 | 163 | 0.0 | 0.0 | 0.00 | 0.02 | 0.00 | 95 | 1014.4 |
| 20260905073543 | 78 | 163 | 0.0 | 0.0 | 0.00 | 0.02 | 0.00 | 95 | 1014.4 |
| 20260905073042 | 78 | 163 | 0.0 | 0.0 | 0.00 | 0.02 | 0.00 | 96 | 1014.5 |
| 20260905072542 | 78 | 163 | 0.0 | 0.0 | 0.00 | 0.02 | 0.00 | 95 | 1014.7 |
| 20260905072041 | 78 | 163 | 0.0 | 0.0 | 0.00 | 0.02 | 0.00 | 95 | 1014.7 |
| 20260905071541 | 78 | 163 | 0.0 | 0.0 | 0.00 | 0.02 | 0.00 | 95 | 1014.7 |
| 20260905071040 | 78 | 163 | 0.0 | 0.0 | 0.00 | 0.02 | 0.00 | 95 | 1014.7 |
| 20260905070540 | 78 | 163 | 0.0 | 0.0 | 0.00 | 0.02 | 0.00 | 95 | 1014.8 |
| 20260905070040 | 78 | 163 | 0.0 | 0.0 | 0.00 | 0.02 | 0.00 | 95 | 1014.8 |
| 20260905065539 | 78 | 163 | 0.0 | 0.0 | 0.00 | 0.02 | 0.00 | 95 | 1014.8 |
| 20260905065039 | 78 | 163 | 0.0 | 0.0 | 0.00 | 0.02 | 0.00 | 95 | 1014.9 |
| 20260905064546 | 78 | 163 | 0.0 | 0.0 | 0.00 | 0.02 | 0.00 | 95 | 1014.8 |
| 20260905064039 | 78 | 163 | 0.0 | 0.0 | 0.00 | 0.02 | 0.00 | 95 | 1014.7 |
| 20260905063542 | 78 | 163 | 0.0 | 0.0 | 0.00 | 0.02 | 0.00 | 95 | 1014.8 |
| 20260905063047 | 78 | 163 | 0.0 | 0.0 | 0.00 | 0.02 | 0.00 | 95 | 1015.0 |
| 20260905062536 | 78 | 163 | 0.0 | 0.0 | 0.00 | 0.02 | 0.00 | 95 | 1015.0 |
| 20260905062036 | 79 | 163 | 0.0 | 0.0 | 0.00 | 0.02 | 0.00 | 95 | 1015.0 |
| 20260905061545 | 79 | 163 | 0.0 | 1.0 | 0.00 | 0.02 | 0.00 | 95 | 1015.2 |
| 20260905061037 | 79 | 163 | 0.0 | 1.0 | 0.00 | 0.02 | 0.00 | 95 | 1015.1 |
| 20260905060536 | 79 | 163 | 0.0 | 1.0 | 0.00 | 0.02 | 0.00 | 95 | 1015.0 |
| 20260905060038 | 79 | 163 | 0.0 | 1.0 | 0.00 | 0.02 | 0.00 | 95 | 1015.0 |
| 20260905055535 | 79 | 163 | 0.0 | 1.0 | 0.00 | 0.02 | 0.00 | 95 | 1015.0 |
| 20260905055037 | 79 | 163 | 0.0 | 3.0 | 0.00 | 0.02 | 0.00 | 95 | 1015.0 |
| 20260905054535 | 79 | 163 | 0.0 | 3.0 | 0.00 | 0.02 | 0.00 | 96 | 1015.0 |
| 20260905054034 | 79 | 140 | 1.0 | 3.0 | 0.00 | 0.02 | 0.00 | 96 | 1015.0 |
| 20260905053534 | 78 | 360 | 0.0 | 2.0 | 0.00 | 0.02 | 0.00 | 96 | 1015.0 |
| 20260905053036 | 79 | 360 | 0.0 | 2.0 | 0.00 | 0.02 | 0.00 | 96 | 1015.1 |
| 20260905052532 | 79 | 355 | 0.0 | 1.0 | 0.00 | 0.02 | 0.00 | 96 | 1015.1 |
| 20260905052032 | 79 | 355 | 0.0 | 1.0 | 0.00 | 0.02 | 0.00 | 96 | 1015.1 |
| 20260905051532 | 79 | 355 | 0.0 | 1.0 | 0.00 | 0.02 | 0.00 | 96 | 1015.2 |
| 20260905051031 | 78 | 355 | 0.0 | 1.0 | 0.00 | 0.02 | 0.00 | 96 | 1015.3 |
| 20260905050531 | 78 | 355 | 0.0 | 1.0 | 0.00 | 0.02 | 0.00 | 96 | 1015.2 |